User: anonymous   Login
Location: Bois de la Silve
(44.4667°N, 6.7833°E)
Time: 14:03:37
(UTC+00:00)
Language:

Cosmos 1238 Rocket - Orbit

View from above orbital plane
View from above orbital plane
View from above satellite
View from above satellite

Ground track
Ground track

The orbit data is extracted from the following two-line orbital elements,

1 12139U 81003B   20262.90075105 +.00001101 +00000-0 +51437-4 0  9994
2 12139 082.9445 240.1199 0460315 291.2028 064.0589 14.57425308020079
Epoch (UTC): 18 September 2020 21:37:04
Eccentricity: 0.0460315
inclination: 82.9445°
perigee height: 375 km
apogee height: 1027 km
right ascension of ascending node: 240.1199°
argument of perigee: 291.2028°
revolutions per day: 14.57425308
mean anomaly at epoch: 64.0589°
orbit number at epoch: 2007

The dashed part of the orbit path shows where the satellite is in the earth's shadow,  

DLR